Weather History for Las Vegas, NV

Change the Weather History Date:

Wednesday, May 15, 2013

  Actual Average Record
Temperature  
Mean Temperature 86 °F 77 °F  
Max Temperature 98 °F 89 °F 107 °F (1937)
Min Temperature 73 °F 66 °F 44 °F (1968)
Degree Days  
Heating Degree Days 0 0  
Month to date heating degree days 0 4  
Since 1 July heating degree days 1757 1947  
Cooling Degree Days 21 12  
Month to date cooling degree days 167 152  
Year to date cooling degree days 447 312  
Growing Degree Days 36 (Base 50)    
Moisture  
Dew Point 29 °F    
Average Humidity 15    
Maximum Humidity 22    
Minimum Humidity 8    
Precipitation  
Precipitation 0.00 in 0.01 in 0.13 in (1981)
Month to date precipitation 0.00 0.06  
Year to date precipitation 0.61 1.95  
Snow  
Snow 0.00 in 0.00 in 0.00 in ()
Month to date snowfall 0.0 0.0  
Since 1 July snowfall T 0.3  
Snow Depth 0.00 in    
Sea Level Pressure  
Sea Level Pressure 29.70 in    
Wind  
Wind Speed 12 mph (SSW)    
Max Wind Speed 29 mph    
Max Gust Speed 39 mph    
Visibility 10 miles    
Events      
T = Trace of Precipitation, MM = Missing Value Source: NWS Daily Summary

Daily Weather History Graph

Daily Weather History Graph

Search for Another Location

Airport:

Trip Planner

Search our weather history database for the weather conditions in past years. The results will help you decide how hot, cold, wet, or windy it might be!

Date:

Astronomy

May. 15, 2013 Rise Set
Actual Time 5:34 AM PDT 7:40 PM PDT
Civil Twilight 5:05 AM PDT 8:08 PM PDT
Nautical Twilight 4:31 AM PDT 8:43 PM PDT
Astronomical Twilight 3:53 AM PDT 9:21 PM PDT
Moon 10:12 AM PDT (5/15) No Moon Set
Length of Visible Light 15h 02m
Length of Day
14h 05m
Waxing Crescent, 28% of the Moon is Illuminated
May 15
Waxing Crescent
May 17
First Quarter
May 24
Full
May 31
Last Quarter
Jun 8
New

Hourly Weather History & Observations

Time (PDT) Temp. Dew Point Humidity Pressure Visibility Wind Dir Wind Speed Gust Speed Precip Events Conditions
12:56 AM 79.0 °F 21.9 °F 12% 29.70 in 10.0 mi SW 24.2 mph 39.1 mph N/A   Clear
1:56 AM 78.1 °F 25.0 °F 14% 29.68 in 10.0 mi SW 23.0 mph 33.4 mph N/A   Clear
2:56 AM 75.9 °F 27.0 °F 16% 29.69 in 10.0 mi SSW 10.4 mph 21.9 mph N/A   Clear
3:36 AM 75.2 °F 28.4 °F 18% 29.78 in 10.0 mi South 13.8 mph - N/A   Clear
3:56 AM 75.0 °F 28.9 °F 18% 29.70 in 10.0 mi SW 8.1 mph - N/A   Partly Cloudy
4:30 AM 77.0 °F 28.4 °F 17% 29.79 in 10.0 mi SSW 18.4 mph 27.6 mph N/A   Partly Cloudy
4:56 AM 75.9 °F 30.0 °F 19% 29.70 in 10.0 mi SSW 17.3 mph 23.0 mph N/A   Partly Cloudy
5:56 AM 73.9 °F 32.0 °F 21% 29.73 in 10.0 mi South 10.4 mph - N/A   Partly Cloudy
6:56 AM 75.9 °F 33.1 °F 21% 29.75 in 10.0 mi SSW 13.8 mph - N/A   Scattered Clouds
7:56 AM 79.0 °F 32.0 °F 18% 29.76 in 10.0 mi Calm Calm - N/A   Partly Cloudy
8:56 AM 82.0 °F 33.1 °F 17% 29.77 in 10.0 mi South 6.9 mph - N/A   Scattered Clouds
9:56 AM 82.9 °F 33.1 °F 17% 29.78 in 10.0 mi SSW 8.1 mph - N/A   Scattered Clouds
10:56 AM 86.0 °F 32.0 °F 14% 29.78 in 10.0 mi Calm Calm - N/A   Scattered Clouds
11:56 AM 90.0 °F 30.9 °F 12% 29.76 in 10.0 mi SSW 6.9 mph - N/A   Scattered Clouds
12:56 PM 91.9 °F 30.9 °F 11% 29.73 in 10.0 mi SSE 10.4 mph 16.1 mph N/A   Scattered Clouds
1:56 PM 95.0 °F 30.9 °F 10% 29.70 in 10.0 mi SSW 3.5 mph - N/A   Scattered Clouds
2:56 PM 95.0 °F 28.0 °F 9% 29.68 in 10.0 mi Variable 3.5 mph 21.9 mph N/A   Scattered Clouds
3:32 PM 96.8 °F 28.4 °F 9% 29.74 in 10.0 mi SSW 18.4 mph 28.8 mph N/A   Scattered Clouds
3:56 PM 96.1 °F 27.0 °F 9% 29.65 in 10.0 mi SSW 17.3 mph 26.5 mph N/A   Scattered Clouds
4:56 PM 96.1 °F 27.0 °F 9% 29.64 in 10.0 mi SSW 15.0 mph 26.5 mph N/A   Scattered Clouds
5:56 PM 95.0 °F 28.0 °F 9% 29.63 in 10.0 mi SW 18.4 mph 27.6 mph N/A   Scattered Clouds
6:56 PM 93.0 °F 28.0 °F 10% 29.62 in 10.0 mi SW 19.6 mph 24.2 mph N/A   Partly Cloudy
7:56 PM 91.0 °F 28.0 °F 10% 29.63 in 10.0 mi SSW 13.8 mph - N/A   Partly Cloudy
8:56 PM 90.0 °F 28.9 °F 11% 29.63 in 10.0 mi SSW 10.4 mph - N/A   Partly Cloudy
9:56 PM 88.0 °F 21.0 °F 9% 29.65 in 10.0 mi SW 16.1 mph - N/A   Partly Cloudy
10:56 PM 84.9 °F 25.0 °F 11% 29.64 in 10.0 mi SSW 17.3 mph - N/A   Partly Cloudy
11:56 PM 82.9 °F 28.9 °F 14% 29.65 in 10.0 mi SSW 20.7 mph 26.5 mph N/A   Scattered Clouds